Notices

What's New in latest Release from April 7th, 2021:

- Updated Glossary, including Speed of Maximum Gust, and Total Hourly Precipitation

- Updated national and regional climate services offices contacts and prices information

- Addition of station inventory lists for 1981-2010, 1971-2000, and 1961-1990 Normals.

If you haven't already, please take our survey and provide feedback about our website: https://eccc.sondage-survey.ca/f/LanguageSelection.aspx?s=442ca660-fcf1-47c0-95a9-59707d6fd709

Hourly Data Report for November 18, 2004

SHERBROOKE A
QUEBEC

45°26'00.000" N
71°41'00.000" W
241.40 m
7028124
71610
YSC

Download Data

Hourly Data (November 2004)
Hourly Data Report for November 18, 2004
TIME
LST
Temp Definition
°C
Dew Point Definition
°C
Rel Hum Definition
%
Precip. Amount Definition
mm

Wind Dir Definition
10's deg

Wind Spd Definition
km/h
Visibility Definition
km
Stn Press Definition
kPa
Hmdx Definition


Wind Chill Definition


Weather Definition


00:00 2.0 0.1 87     0 11.3 99.33      
01:00 1.9 0.0 87   12 4 12.9 99.25      
02:00 2.2 0.2 87     0 12.9 99.27      
03:00 2.4 0.2 85     0 12.9 99.23      
04:00 2.0 0.1 87     0 15.0 99.20      
05:00 2.3 0.4 87     0 15.0 99.19      
06:00 2.5 0.6 87     0 15.0 99.20      
07:00 2.5 0.5 87     0 15.0 99.21      
08:00 2.8 0.7 86     0 19.3 99.21     Cloudy
09:00 3.4 0.9 84   6 4 19.3 99.19     Cloudy
10:00 4.4 1.5 81     0 19.3 99.12     Cloudy
11:00 6.5 2.3 74     0 19.3 99.04     Cloudy
12:00 7.6 3.0 73     0 19.3 98.95     Cloudy
13:00 8.3 3.2 70     0 19.3 98.88     Cloudy
14:00 8.4 3.5 71     0 19.3 98.85     Cloudy
15:00 7.9 3.3 73     0 19.3 98.83     Cloudy
16:00 7.5 4.0 78   21 4 16.1 98.80     Cloudy
17:00 7.3 4.0 80     0 16.1 98.81     Cloudy
18:00 6.9 4.1 82   18 6 12.9 98.78      
19:00 6.0 5.1 94   19 6 2.9 98.76     Drizzle
20:00 5.8 5.2 96     0 2.4 98.75      
21:00 5.8 5.2 96   25 4 1.8 98.72      
22:00 5.8 5.5 98   22 6 0.8 98.71     Drizzle
23:00 6.3 6.0 98   21 7 1.6 98.72      

Notes on Data Quality.

Legend

  • E = Estimated
  • M = Missing
  • NA = Not Available*
  • [empty] = Indicates an unobserved value
Date modified: